Flag for Netherlands Weather past 2 weeks in Amsterdam, Netherlands

Now
50 °F

Partly cloudy.


Feels Like: 43 °F
Forecast: 44 / 49 °F
Wind: 24 mph from Southwest

Location: Amsterdam Schiphol Airport

Current Time: Mar 28, 2015 at 8:36:30 PM

Latest Report: Mar 28, 2015 at 7:55 PM


Visibility: N/A

Pressure: 29.74 "Hg

Humidity: 94%

Dew point: 48 °F

Location of AmsterdamLocation

Historic Weather in Amsterdam — Graph

°F

Amsterdam temperature yesterday

Maximum temperature yesterday: 46 °F (at 11:55 AM)
Minimum temperature yesterday: 34 °F (at 11:25 PM)
Average temperature yesterday: 43 °F

Past Weeks' High & Low Weather Summary

 TemperatureHumidityPressure
High59 °F (Mar 17, 1:25 PM)100% (Mar 17, 4:55 AM)30.42 "Hg (Mar 17, 4:55 AM)
Low28 °F (Mar 23, 6:55 AM)48% (Mar 17, 1:55 PM)29.62 "Hg (Mar 26, 2:55 PM)
Average42 °F83%30.13 "Hg
* Reported Mar 13 7:25 PM — Mar 28 7:25 PM, Amsterdam, Weather by CustomWeather, © 2015

Note: Actual official high and low records may vary slightly from our data, if they occured in-between our weather recording intervals... More about our weather records

Advertising

Amsterdam weather history for previous 24 hours

 ConditionsComfort  
Time TempWeatherWind HumidityBarometerVisibility
7:25 PM
Sat, Mar 28
50 °FPartly cloudy.26 mph94%29.74 "HgN/A
6:55 PM50 °FLight rain. Broken clouds.25 mph94%29.74 "HgN/A
6:25 PM50 °FMore clouds than sun.25 mph94%29.74 "HgN/A
5:55 PM50 °FDrizzle. Low clouds.26 mph94%29.74 "HgN/A
5:25 PM50 °FMore clouds than sun.29 mph88%29.77 "HgN/A
4:55 PM52 °FMostly cloudy.26 mph88%29.77 "HgN/A
4:25 PM52 °FMostly cloudy.22 mph88%29.77 "Hg6 mi
3:55 PM50 °FMore clouds than sun.18 mph100%29.80 "Hg6 mi
3:25 PM48 °FFog.17 mph100%29.83 "Hg2 mi
2:55 PM48 °FDrizzle. Fog.18 mph100%29.83 "Hg1 mi
2:25 PM48 °FDrizzle. Mostly cloudy.20 mph94%29.86 "Hg3 mi
1:55 PM46 °FLow clouds.17 mph100%29.86 "Hg4 mi
1:25 PM46 °FDrizzle. Mostly cloudy.20 mph93%29.89 "Hg6 mi
12:55 PM46 °FDrizzle. Mostly cloudy.15 mph93%29.89 "Hg2 mi
12:25 PM46 °FDrizzle. Mostly cloudy.16 mph93%29.92 "Hg3 mi
11:55 AM46 °FDrizzle. More clouds than sun.18 mph93%29.92 "Hg4 mi
11:25 AM46 °FDrizzle. Overcast.16 mph87%29.95 "HgN/A
10:55 AM46 °FDrizzle. Broken clouds.16 mph87%29.95 "HgN/A
10:25 AM45 °FDrizzle. Broken clouds.15 mph87%29.98 "HgN/A
9:55 AM45 °FPartly sunny.15 mph76%30.01 "HgN/A
9:25 AM45 °FPartly sunny.14 mph76%30.01 "HgN/A
8:55 AM43 °FPartly sunny.12 mph76%30.04 "HgN/A
8:25 AM41 °FPassing clouds.10 mph81%30.04 "HgN/A
7:55 AM39 °FPartly sunny.10 mph81%30.07 "HgN/A
7:25 AM39 °FPartly sunny.10 mph81%30.07 "HgN/A
6:55 AM37 °FScattered clouds.10 mph87%30.07 "HgN/A
6:25 AM37 °FPassing clouds.8 mph81%30.09 "HgN/A
5:55 AM36 °FClear.6 mph87%30.09 "Hg10 mi
5:25 AM36 °FClear.8 mph87%30.12 "Hg10 mi
4:55 AM36 °FClear.7 mph93%30.12 "Hg10 mi
4:25 AM36 °FClear.7 mph93%30.12 "Hg10 mi
3:55 AM36 °FClear.7 mph93%30.12 "Hg10 mi
3:25 AM36 °FClear.7 mph93%30.15 "Hg10 mi
2:55 AM34 °FClear.7 mph100%30.15 "Hg10 mi
2:25 AM34 °FClear.8 mph93%30.15 "Hg10 mi
1:55 AM34 °FClear.7 mph93%30.15 "Hg10 mi
1:25 AM34 °FClear.7 mph93%30.18 "Hg10 mi
12:55 AM34 °FClear.8 mph93%30.18 "Hg10 mi
12:25 AM34 °FClear.6 mph93%30.18 "Hg10 mi
11:55 PM
Fri, Mar 27
36 °FClear.3 mph93%30.18 "Hg10 mi
11:25 PM34 °FClear.7 mph100%30.18 "Hg10 mi
10:55 PM36 °FClear.7 mph93%30.18 "Hg10 mi
10:25 PM37 °FClear.8 mph93%30.18 "Hg10 mi
9:55 PM37 °FClear.6 mph93%30.18 "Hg10 mi
9:25 PM39 °FPassing clouds.6 mph87%30.18 "HgN/A
8:55 PM41 °FPassing clouds.8 mph87%30.18 "HgN/A
8:25 PM41 °FClear.9 mph87%30.18 "Hg10 mi
Weather by CustomWeather, © 2015

See weather overviewHow to use our weather pages